Theta_e
291 290 290 290 290 290 290 290 290 290 290 290 290 290 290 291 291 291 291 291 291 290 290 290 290 290 290 290 290 289 289 288 288 288 288 288 287 287 287 287 287 287
291 291 291 291 291 291 291 291 291 291 290 291 291 291 291 291 291 291 291 291 290 290 290 290 290 290 289 289 289 288 288 288 287 289 288 288 287 287 287 287 287 287
292 291 291 291 290 291 291 292 292 292 291 291 291 291 291 291 291 291 291 290 290 290 290 290 290 289 289 289 289 288 287 287 287 288 288 287 287 287 287 287 287 287
292 292 291 291 291 291 291 291 291 291 291 291 291 291 291 292 291 291 291 290 290 289 290 290 289 289 289 288 288 288 288 287 288 288 287 287 287 287 287 287 286 286
292 292 292 291 291 291 291 290 290 291 291 291 291 291 291 291 291 290 290 290 290 289 289 289 289 289 289 288 288 287 288 287 288 288 287 286 287 287 287 287 286 285
291 291 291 291 291 291 290 290 290 290 290 290 290 291 290 290 290 289 289 289 289 289 288 288 288 288 288 288 288 287 287 287 287 287 286 286 286 286 286 286 285 285
291 291 291 291 291 290 290 289 289 290 290 290 290 289 290 289 289 289 289 289 288 288 287 287 287 287 288 288 287 287 287 287 286 286 285 285 285 285 286 286 285 284
290 291 291 290 290 290 289 289 289 289 290 290 289 289 289 289 289 289 289 288 287 287 287 287 287 287 287 287 286 286 286 286 286 286 285 285 285 284 285 285 284 284
291 290 290 290 289 289 289 289 289 290 290 289 289 289 289 289 288 288 287 287 287 287 287 286 287 287 287 287 286 286 285 285 285 285 284 284 283 283 283 284 283 283
290 290 290 289 289 289 289 289 289 289 289 289 289 288 288 288 288 287 287 287 286 286 286 286 286 287 286 286 286 285 285 284 284 284 284 283 283 283 283 282 282 281
290 290 289 289 289 289 289 289 289 289 289 288 288 287 287 287 287 287 287 287 286 286 286 286 286 286 285 285 285 285 284 284 283 283 283 283 283 282 283 282 282 281
289 289 289 289 289 289 289 289 289 288 288 288 287 287 287 287 287 287 287 286 286 286 286 286 286 285 285 284 284 284 284 283 283 283 283 282 282 282 282 282 281 281
289 289 289 289 288 288 288 288 288 287 287 286 287 286 286 286 286 286 286 286 286 286 285 285 285 285 284 284 284 283 283 282 282 282 282 282 282 282 282 282 281 281
289 289 288 288 288 288 287 287 287 287 287 287 287 286 286 286 286 286 286 286 285 285 285 285 284 284 284 283 283 282 282 281 281 281 281 281 281 281 281 281 281 281
289 288 288 287 287 287 286 286 286 287 287 286 286 286 286 286 286 286 285 284 284 284 284 284 284 284 283 283 282 281 281 281 281 281 280 280 280 280 280 280 280 280
288 287 287 287 286 286 286 286 286 286 286 286 286 286 286 286 285 285 284 284 283 283 283 283 283 283 283 282 283 281 281 281 280 280 280 279 279 279 279 280 280 280
287 286 286 286 286 286 286 286 286 286 285 285 285 285 285 285 284 284 283 283 283 282 282 282 281 281 281 282 282 282 281 280 279 279 279 279 279 278 278 278 279 279
286 286 286 286 286 286 286 285 285 285 285 285 284 284 284 284 283 283 282 282 282 281 280 280 280 281 281 281 281 281 281 280 279 279 278 278 278 278 278 278 278 278
286 285 285 285 285 285 285 285 285 284 284 284 284 284 283 282 282 281 281 281 280 279 279 279 279 280 281 281 281 281 281 280 279 278 278 277 277 277 277 277 277 277
285 285 285 285 285 285 285 284 284 284 284 284 283 282 281 281 281 280 279 279 279 278 278 278 278 279 280 280 280 280 280 280 278 277 277 277 277 277 276 276 276 275
285 285 284 284 284 284 284 284 284 283 283 282 281 280 280 279 279 278 278 278 278 278 277 277 277 279 279 279 279 280 280 279 277 276 276 276 276 276 275 275 275 275
284 284 284 284 284 284 283 283 282 282 280 280 280 279 279 279 278 278 278 277 277 277 276 276 277 278 278 279 279 279 279 276 276 275 275 275 275 275 275 276 276 276
284 283 283 283 283 283 282 281 280 279 279 279 278 278 277 277 277 277 277 277 276 276 275 275 275 277 278 278 278 278 277 275 275 275 274 274 274 275 275 275 276 276
284 283 283 282 282 281 280 279 279 279 278 278 277 276 276 276 276 276 276 276 275 275 275 274 274 275 277 277 277 277 277 275 274 274 274 274 274 275 275 275 276 276
283 283 282 281 280 279 278 277 277 277 277 277 277 276 276 276 276 275 275 275 275 275 274 274 274 274 276 276 276 277 277 275 274 274 273 273 274 274 274 275 275 275
282 281 280 279 277 277 277 277 277 276 276 275 275 275 275 275 274 274 273 273 274 274 274 273 273 273 274 276 276 277 277 275 275 274 273 273 273 272 272 274 274 274
Wind_Speed
10 9 10 10 10 10 10 10 10 10 10 9 9 10 10 10 10 10 10 10 10 10 10 10 10 10 9 10 10 10 10 11 11 11 13 13 13 14 13 14 15 14
11 10 9 9 9 9 10 10 10 10 10 10 10 10 10 10 10 9 10 10 10 11 11 11 10 10 11 10 10 11 11 11 13 10 12 14 13 14 15 16 15 15
11 10 10 11 11 12 12 10 9 9 9 10 10 10 9 8 9 10 10 10 10 11 11 10 10 10 10 11 11 11 11 12 13 12 13 14 13 13 14 14 13 15
11 10 10 11 11 12 11 10 9 9 9 9 10 9 8 7 8 10 10 11 11 11 10 10 10 10 10 11 11 10 11 12 12 13 14 13 12 13 14 13 14 14
11 10 10 10 10 11 10 10 11 10 10 10 10 10 10 9 9 9 9 9 9 11 10 11 10 10 10 10 11 11 11 12 12 12 13 14 13 13 13 13 14 16
11 11 11 11 11 10 10 11 11 11 11 11 11 9 10 10 10 10 10 11 10 11 11 11 11 11 11 12 11 11 12 12 13 14 15 16 15 14 12 13 16 17
12 12 13 11 11 11 11 11 11 10 11 10 9 10 10 10 10 11 11 10 11 11 12 11 12 12 11 11 11 13 13 14 15 15 16 15 15 16 15 15 16 18
12 12 11 10 11 11 11 11 11 10 10 9 10 10 9 10 11 9 9 11 11 12 12 12 12 13 12 11 12 13 14 11 12 15 16 16 16 16 17 15 16 18
11 11 10 11 12 11 11 11 10 10 9 9 9 9 9 9 10 10 11 11 12 12 12 12 12 12 11 12 12 14 15 15 14 16 16 17 18 18 18 17 18 18
11 11 11 11 11 10 11 11 10 9 8 9 9 8 9 9 10 11 11 11 11 12 11 11 12 12 12 12 14 14 15 17 17 17 17 18 19 19 19 18 19 19
11 10 10 11 11 9 11 10 9 9 8 9 9 9 10 10 10 9 10 10 10 11 12 12 12 13 13 14 14 14 16 17 18 18 18 19 19 19 18 19 19 19
10 10 10 10 10 9 10 9 9 9 9 8 9 10 10 9 10 9 9 11 11 12 12 12 12 13 13 14 15 16 16 17 17 18 18 18 19 18 18 19 19 20
9 9 9 9 9 8 8 8 9 9 9 10 9 9 10 10 10 10 10 10 11 12 12 13 13 13 13 14 15 16 17 17 18 18 18 17 17 20 21 21 21 20
8 8 8 8 8 8 8 9 9 9 9 9 9 9 9 10 10 11 11 10 11 12 12 12 13 13 13 14 15 15 16 17 18 18 18 18 19 20 21 20 20 21
7 7 7 8 8 8 8 9 9 9 9 9 8 9 8 9 10 11 12 13 13 13 13 12 12 11 11 12 14 16 16 17 18 18 19 19 21 20 19 20 20 19
8 8 8 8 8 8 8 8 8 9 8 9 9 9 10 10 11 11 12 13 13 13 12 11 10 10 12 20 20 16 18 17 18 18 19 20 20 21 20 20 20 19
7 7 7 8 8 8 8 9 9 8 9 9 9 10 11 11 11 12 12 12 13 13 13 11 10 10 18 22 23 26 20 18 18 19 19 19 20 20 21 20 19 20
7 8 8 8 8 9 9 9 9 9 10 10 10 11 11 11 12 12 13 12 11 13 13 12 11 14 21 23 24 25 23 19 17 17 18 18 19 20 19 20 20 20
7 8 8 8 8 9 8 9 9 10 10 10 11 11 11 12 13 13 13 12 12 13 13 13 12 16 21 24 24 25 26 23 16 17 17 18 20 20 20 19 18 18
7 8 9 9 9 9 9 9 9 9 10 10 11 11 12 13 13 13 12 12 12 13 13 13 14 15 21 23 24 25 26 24 17 18 18 18 19 19 17 19 18 19
8 8 9 9 9 9 8 9 9 9 11 11 11 11 12 12 12 12 11 11 12 12 13 13 12 18 21 24 25 26 26 23 17 16 16 17 17 17 18 19 19 18
8 9 9 9 9 9 9 9 9 10 12 12 11 11 11 11 11 11 12 12 12 13 13 14 14 19 22 24 25 25 26 17 15 16 17 17 17 17 18 18 17 19
8 8 8 8 8 9 9 10 11 12 12 10 12 11 11 11 11 11 10 11 13 14 14 14 14 18 23 23 23 24 20 15 16 15 16 17 17 17 18 18 18 19
7 7 8 8 8 9 10 10 11 10 10 10 11 12 12 12 12 11 11 10 13 15 14 15 15 19 23 22 23 24 21 16 15 15 17 17 17 18 16 18 19 25
7 7 7 8 9 9 9 11 11 10 10 10 10 11 12 11 11 11 11 11 12 14 16 16 15 17 20 20 23 23 20 15 15 15 16 16 16 18 18 17 18 19
6 6 7 8 9 10 9 10 10 10 10 11 11 10 11 11 11 11 13 13 13 13 12 13 15 15 16 22 22 24 24 17 16 15 17 18 17 18 18 14 15 20
Wind_Direction
246 248 249 250 252 252 256 257 258 259 261 265 266 269 271 275 280 277 277 277 273 273 272 272 275 276 276 277 278 278 279 279 278 277 276 275 274 274 272 270 268 267
249 249 251 254 257 254 250 250 254 257 262 263 265 269 270 272 271 273 276 276 275 271 272 272 272 273 276 277 279 280 281 281 280 278 277 274 274 274 272 270 270 270
251 249 248 250 254 257 256 254 254 255 257 261 267 267 268 265 272 273 274 275 277 275 273 272 272 272 275 276 277 278 279 280 280 279 277 277 277 276 275 276 275 275
255 251 253 254 255 260 264 267 264 260 258 260 258 264 266 268 271 274 273 273 274 274 273 271 271 274 274 275 276 276 277 277 278 279 279 278 278 280 281 280 278 277
272 272 265 262 262 263 266 267 267 268 269 269 275 274 276 275 274 277 278 280 278 280 279 278 278 278 278 279 277 279 281 282 283 284 284 285 285 285 284 283 281 279
269 266 266 266 265 267 266 265 267 270 273 275 274 280 279 281 280 281 284 286 288 286 284 283 283 282 282 281 281 280 283 287 290 290 288 287 288 286 285 283 283 280
271 270 267 266 267 264 265 267 269 270 270 272 280 276 281 283 281 284 289 293 292 288 286 285 284 284 282 284 283 285 286 288 290 289 287 287 287 286 283 281 279 279
272 272 272 273 272 272 272 271 270 270 273 277 275 280 283 284 285 290 293 294 290 287 284 282 282 283 285 285 286 288 290 290 289 289 287 286 286 284 284 282 281 282
277 276 277 277 277 276 275 274 274 275 278 278 282 288 289 286 292 295 294 289 285 282 283 283 284 286 288 289 290 291 292 292 289 289 288 286 285 284 284 286 285 284
278 280 280 279 279 278 277 278 281 284 287 287 291 295 293 294 292 290 287 284 284 285 286 289 292 294 296 295 295 293 292 290 289 286 285 284 284 285 286 286 285 285
283 285 282 281 279 280 281 286 289 291 294 295 298 297 295 294 291 287 286 287 291 293 297 298 298 299 298 295 293 289 288 287 286 285 284 284 283 283 284 284 285 285
284 284 280 281 284 286 289 294 297 298 299 298 294 294 294 290 289 292 291 293 296 298 298 298 299 297 295 292 291 290 288 288 287 286 285 285 286 287 289 291 290 288
283 283 288 291 292 296 299 299 298 297 296 293 293 291 291 293 295 296 298 298 299 299 298 297 295 292 290 291 291 291 291 290 289 288 289 289 288 292 293 292 288 284
284 291 293 293 296 298 296 294 293 292 293 293 294 294 295 297 300 301 302 300 298 295 292 290 289 290 291 291 291 293 294 292 291 293 293 293 292 294 293 288 285 283
294 295 293 296 297 296 294 294 296 296 295 296 296 296 296 297 300 303 302 298 293 290 291 292 292 291 291 294 295 294 295 297 296 296 296 296 297 293 289 287 285 282
302 299 297 300 297 296 297 298 298 300 301 301 302 301 302 302 300 297 293 292 294 294 295 295 293 291 288 288 289 292 299 300 298 297 298 298 295 293 289 286 285 283
302 300 301 298 299 298 300 304 307 307 304 303 304 304 302 300 298 297 295 294 295 297 298 297 294 291 290 291 294 299 301 301 300 300 299 296 292 290 290 289 288 290
304 302 301 301 303 305 308 309 307 306 304 304 303 303 304 300 297 296 297 298 298 298 298 297 295 291 291 294 299 302 303 302 302 300 298 294 292 290 289 290 291 294
301 300 300 302 306 308 309 306 305 303 304 307 308 307 302 300 299 298 299 300 300 300 299 297 295 292 293 298 301 303 305 308 304 299 295 292 290 289 290 291 292 293
301 302 302 305 308 308 307 304 305 308 312 311 308 305 302 300 299 300 301 301 301 300 298 297 295 293 297 300 303 306 309 310 303 299 294 290 290 291 291 292 291 292
307 306 306 307 308 308 308 309 315 318 316 312 307 304 303 303 304 305 303 302 301 300 299 296 294 298 302 302 304 308 311 310 302 297 293 291 291 291 291 290 290 287
308 308 308 311 314 316 318 320 323 319 313 310 306 303 301 301 299 300 302 303 303 300 297 297 299 304 302 301 306 311 313 309 302 298 296 294 293 292 291 291 289 291
314 314 314 317 322 324 327 326 320 315 310 310 306 305 305 304 302 304 304 304 302 299 299 300 303 302 300 304 309 312 312 306 303 300 299 298 296 295 294 293 294 293
318 320 322 327 332 332 326 318 313 308 308 310 306 307 306 306 306 305 306 304 301 298 300 304 300 296 300 306 311 312 311 307 306 304 302 301 299 299 300 301 299 301
324 332 336 338 334 327 320 314 313 313 309 309 306 304 302 306 307 306 306 302 296 295 297 297 295 296 301 308 312 312 313 310 309 307 304 305 306 306 306 303 300 301
341 347 348 338 327 320 318 313 311 310 313 310 307 306 308 308 308 306 305 301 297 299 303 298 297 299 304 312 311 313 314 314 312 309 311 312 311 308 305 300 302 303